Regional Weather Roundup
Issued by NWS Spokane, WA

Home | Current Version | Previous Version | Text Only | Print | Product List | Glossary On
Versions: 1 2 3 4 5 6 7 8 9 10 11 12 13 14 15 16 17 18 19 20 21 22 23 24 25 26 27 28 29 30 31 32 33 34 35 36 37 38 39 40 41 42 43 44 45 46 47 48 49 50
000
NZUS01 KOTX 051110
RWROTX
EASTERN WASHINGTON/NORTHERN IDAHO ROUNDUP
NATIONAL WEATHER SERVICE, SPOKANE WA
400 AM PDT WED AUG 05 2015

Note: "fair" indicated few or no clouds below 12,000 feet with no
significant weather and/or obstructions to visibility.

...NORTHEAST WASHINGTON AND NORTHERN IDAHO PANHANDLE...

CITY           SKY/WX    TMP DP  RH WIND       PRES   REMARKS
SPOKANE INTL   PTCLDY    63  38  39 S12       29.87R
SPOKANE DOWNTO PTCLDY    68  39  34 SW9       29.87R
COEUR D ALENE  MOCLDY    66  39  37 S9        29.86R
DEER PARK      CLEAR     53  39  59 SW3       29.86R
SANDPOINT      MOCLDY    54  43  66 CALM      29.85R
BONNERS FERRY  FAIR      59  50  72 CALM      29.86S

...SOUTHEAST WASHINGTON AND SOUTHERN IDAHO PANHANDLE...

CITY           SKY/WX    TMP DP  RH WIND       PRES   REMARKS
WALLA WALLA    CLEAR     66  40  38 S10       29.94R
PULLMAN/MOSCOW PTCLDY    64  36  35 W10       29.95R
LEWISTON       PTCLDY    72  37  28 NW6       29.88R
LOWELL           N/A     62  56  80 CALM      29.93R

...COLUMBIA BASIN...

CITY           SKY/WX    TMP DP  RH WIND       PRES   REMARKS
EPHRATA        CLEAR     67  39  35 NW10G17   29.86R
MOSES LAKE     CLEAR     64  45  49 SW7       29.88R
TRI CITIES     MOCLDY    63  49  60 E8        29.90R
HERMISTON      PTCLDY    66  43  43 SW10      29.91S
PENDLETON      CLEAR     62  34  35 W6        29.95R

...EAST SLOPES CASCADES...

CITY           SKY/WX    TMP DP  RH WIND       PRES   REMARKS
THE DALLES     PTCLDY    64  49  57 NW20G26   29.95R
YAKIMA         CLEAR     63  43  48 NW10      29.93R
ELLENSBURG     CLEAR     62  45  53 NW17      29.96R
WENATCHEE      PTCLDY    66  42  41 NW13      29.90R
OMAK           CLEAR     58  40  51 N9        29.86S

...SOUTHERN BRITISH COLUMBIA...

CITY           SKY/WX    TMP DP  RH WIND       PRES   REMARKS
PENTICTON      PTCLDY    52  41  66 NW2       29.91R
CRANBROOK      PTCLDY    55  48  76 N6        29.94S

...WESTERN MONTANA...

CITY           SKY/WX    TMP DP  RH WIND       PRES   REMARKS
MISSOULA       MOCLDY    59  47  64 NE7       29.95S

...NEIGHBORING CITIES...

CITY           SKY/WX    TMP DP  RH WIND       PRES   REMARKS
SEATTLE        PTCLDY    56  51  84 S5        30.06R
CALGARY        LGT RAIN  55  52  88 NW8       29.93F



USA.gov is the U.S. government's official web portal to all federal, state and local government web resources and services.